| time (UTC) | temp C | wind direction | speed KPH | gust KPH | rain 1hr cm | rain 24hr cm | rain mn cm | humidity % | barometer mb |
| 20260509013053 | 17 | 5 | 9.7 | 20.9 | 0.00 | 0.00 | 0.00 | 50 | 1025.3 |
| 20260509011541 | 17 | 26 | 8.0 | 19.3 | 0.00 | 0.00 | 0.00 | 52 | 1025.5 |
| 20260509010038 | 16 | 55 | 4.8 | 19.3 | 0.00 | 0.00 | 0.00 | 54 | 1025.6 |
| 20260509004534 | 16 | 9 | 9.7 | 24.1 | 0.00 | 0.00 | 0.00 | 55 | 1025.6 |
| 20260509003024 | 15 | 70 | 8.0 | 17.7 | 0.00 | 0.00 | 0.00 | 57 | 1025.6 |
| 20260509001520 | 14 | 350 | 6.4 | 17.7 | 0.00 | 0.00 | 0.00 | 60 | 1025.6 |
| 20260509000014 | 13 | 13 | 4.8 | 14.5 | 0.00 | 0.00 | 0.00 | 61 | 1025.7 |
| 20260508234508 | 13 | 23 | 3.2 | 14.5 | 0.00 | 0.00 | 0.00 | 61 | 1025.5 |
| 20260508233007 | 13 | 59 | 4.8 | 19.3 | 0.00 | 0.00 | 0.00 | 61 | 1025.4 |
| 20260508231507 | 13 | 360 | 4.8 | 17.7 | 0.00 | 0.00 | 0.00 | 60 | 1025.4 |
| 20260508230002 | 13 | 11 | 4.8 | 17.7 | 0.00 | 0.00 | 0.00 | 60 | 1025.2 |
| 20260508224600 | 13 | 326 | 8.0 | 17.7 | 0.00 | 0.00 | 0.00 | 59 | 1025.2 |
| 20260508223055 | 13 | 28 | 8.0 | 14.5 | 0.00 | 0.00 | 0.00 | 59 | 1025.2 |
| 20260508221553 | 13 | 49 | 6.4 | 14.5 | 0.00 | 0.00 | 0.00 | 58 | 1025.1 |
| 20260508220050 | 14 | 5 | 6.4 | 17.7 | 0.00 | 0.00 | 0.00 | 58 | 1025.2 |
| 20260508214601 | 14 | 20 | 4.8 | 12.9 | 0.00 | 0.00 | 0.00 | 56 | 1025.3 |
| 20260508213041 | 14 | 24 | 9.7 | 19.3 | 0.00 | 0.00 | 0.00 | 56 | 1025.2 |
| 20260508211538 | 15 | 26 | 8.0 | 16.1 | 0.00 | 0.00 | 0.00 | 55 | 1025.1 |
| 20260508210038 | 15 | 23 | 8.0 | 14.5 | 0.00 | 0.00 | 0.00 | 55 | 1024.9 |
| 20260508204536 | 15 | 19 | 4.8 | 20.9 | 0.00 | 0.00 | 0.00 | 54 | 1024.7 |
| 20260508203003 | 15 | 24 | 4.8 | 17.7 | 0.00 | 0.00 | 0.00 | 54 | 1024.6 |
| 20260508201558 | 15 | 15 | 6.4 | 17.7 | 0.00 | 0.00 | 0.00 | 53 | 1024.4 |
| 20260508200052 | 15 | 17 | 4.8 | 14.5 | 0.00 | 0.00 | 0.00 | 52 | 1024.4 |
| 20260508194554 | 15 | 9 | 3.2 | 11.3 | 0.00 | 0.00 | 0.00 | 52 | 1024.4 |
| 20260508193102 | 15 | 13 | 4.8 | 11.3 | 0.00 | 0.00 | 0.00 | 52 | 1024.3 |
| 20260508191556 | 16 | 30 | 3.2 | 17.7 | 0.00 | 0.00 | 0.00 | 52 | 1024.1 |
| 20260508190103 | 15 | 355 | 6.4 | 19.3 | 0.00 | 0.00 | 0.00 | 52 | 1023.8 |
| 20260508184547 | 15 | 18 | 4.8 | 14.5 | 0.00 | 0.00 | 0.00 | 52 | 1023.9 |
| 20260508183059 | 15 | 69 | 3.2 | 11.3 | 0.00 | 0.00 | 0.00 | 53 | 1024.0 |
| 20260508181544 | 15 | 35 | 1.6 | 8.0 | 0.00 | 0.00 | 0.00 | 52 | 1024.2 |
| 20260508180056 | 15 | 46 | 1.6 | 8.0 | 0.00 | 0.00 | 0.00 | 51 | 1024.2 |
| 20260508174558 | 16 | 69 | 0.0 | 11.3 | 0.00 | 0.00 | 0.00 | 51 | 1024.3 |
| 20260508173041 | 16 | 21 | 0.0 | 9.7 | 0.00 | 0.00 | 0.00 | 51 | 1024.2 |
| 20260508171540 | 16 | 35 | 1.6 | 8.0 | 0.00 | 0.00 | 0.00 | 50 | 1024.0 |
| 20260508170041 | 16 | 123 | 1.6 | 9.7 | 0.00 | 0.00 | 0.00 | 48 | 1024.2 |
| 20260508164545 | 17 | 116 | 1.6 | 9.7 | 0.00 | 0.00 | 0.00 | 47 | 1024.3 |
| 20260508163037 | 17 | 84 | 1.6 | 9.7 | 0.00 | 0.00 | 0.00 | 46 | 1024.2 |
| 20260508161535 | 17 | 59 | 3.2 | 12.9 | 0.00 | 0.00 | 0.00 | 46 | 1024.2 |
| 20260508160035 | 17 | 75 | 3.2 | 9.7 | 0.00 | 0.00 | 0.00 | 45 | 1024.0 |
| 20260508154532 | 17 | 355 | 4.8 | 12.9 | 0.00 | 0.00 | 0.00 | 44 | 1024.0 |
| 20260508153039 | 17 | 30 | 4.8 | 11.3 | 0.00 | 0.00 | 0.00 | 44 | 1023.9 |
| 20260508151530 | 17 | 5 | 3.2 | 14.5 | 0.00 | 0.00 | 0.00 | 44 | 1024.0 |
| 20260508150029 | 17 | 20 | 1.6 | 11.3 | 0.00 | 0.00 | 0.00 | 44 | 1024.1 |
| 20260508144529 | 17 | 75 | 1.6 | 9.7 | 0.00 | 0.00 | 0.00 | 44 | 1024.2 |
| 20260508143025 | 17 | 38 | 1.6 | 4.8 | 0.00 | 0.00 | 0.00 | 45 | 1024.4 |
| 20260508141525 | 17 | 27 | 1.6 | 8.0 | 0.00 | 0.00 | 0.00 | 45 | 1024.3 |
| 20260508140024 | 17 | 5 | 1.6 | 8.0 | 0.00 | 0.00 | 0.00 | 46 | 1024.3 |
| 20260508134520 | 18 | 19 | 4.8 | 16.1 | 0.00 | 0.00 | 0.00 | 47 | 1024.1 |
| 20260508133020 | 18 | 39 | 3.2 | 11.3 | 0.00 | 0.00 | 0.00 | 48 | 1024.0 |
| 20260508131518 | 18 | 74 | 3.2 | 9.7 | 0.00 | 0.00 | 0.00 | 49 | 1024.1 |
| 20260508130029 | 18 | 74 | 3.2 | 9.7 | 0.00 | 0.00 | 0.00 | 49 | 1024.1 |
| 20260508124514 | 18 | 36 | 1.6 | 16.1 | 0.00 | 0.00 | 0.00 | 49 | 1024.1 |
| 20260508123017 | 18 | 71 | 3.2 | 12.9 | 0.00 | 0.00 | 0.00 | 49 | 1024.1 |
| 20260508121514 | 18 | 88 | 1.6 | 8.0 | 0.00 | 0.00 | 0.00 | 49 | 1024.1 |
| 20260508120058 | 18 | 65 | 1.6 | 8.0 | 0.00 | 0.00 | 0.00 | 48 | 1024.1 |
| 20260508114554 | 18 | 51 | 3.2 | 8.0 | 0.00 | 0.00 | 0.00 | 48 | 1023.9 |
| 20260508113041 | 19 | 71 | 3.2 | 8.0 | 0.00 | 0.00 | 0.00 | 47 | 1023.9 |
| 20260508111541 | 19 | 155 | 1.6 | 9.7 | 0.00 | 0.00 | 0.00 | 47 | 1024.0 |
| 20260508110037 | 19 | 86 | 3.2 | 9.7 | 0.00 | 0.00 | 0.00 | 46 | 1023.9 |
| 20260508104539 | 20 | 85 | 1.6 | 11.3 | 0.00 | 0.00 | 0.00 | 46 | 1024.1 |
| 20260508103010 | 20 | 63 | 1.6 | 9.7 | 0.00 | 0.00 | 0.00 | 45 | 1024.0 |
| 20260508101505 | 20 | 5 | 1.6 | 12.9 | 0.00 | 0.00 | 0.00 | 45 | 1023.9 |
| 20260508100108 | 20 | 82 | 1.6 | 9.7 | 0.00 | 0.00 | 0.00 | 46 | 1023.8 |
| 20260508094538 | 21 | 61 | 1.6 | 11.3 | 0.00 | 0.00 | 0.00 | 45 | 1023.7 |
| 20260508093040 | 21 | 46 | 1.6 | 12.9 | 0.00 | 0.00 | 0.00 | 44 | 1023.5 |
| 20260508091537 | 21 | 109 | 4.8 | 12.9 | 0.00 | 0.00 | 0.00 | 43 | 1023.4 |
| 20260508090035 | 22 | 87 | 6.4 | 12.9 | 0.00 | 0.00 | 0.00 | 42 | 1023.4 |
| 20260508084537 | 22 | 108 | 4.8 | 12.9 | 0.00 | 0.00 | 0.00 | 40 | 1023.2 |
| 20260508081526 | 23 | 55 | 3.2 | 12.9 | 0.00 | 0.00 | 0.00 | 39 | 1023.2 |
| 20260508080024 | 23 | 46 | 4.8 | 14.5 | 0.00 | 0.00 | 0.00 | 38 | 1023.3 |
| 20260508074524 | 23 | 346 | 4.8 | 19.3 | 0.00 | 0.00 | 0.00 | 38 | 1023.2 |
| 20260508071539 | 23 | 96 | 6.4 | 16.1 | 0.00 | 0.00 | 0.00 | 39 | 1023.2 |
| 20260508070038 | 23 | 355 | 4.8 | 12.9 | 0.00 | 0.00 | 0.00 | 40 | 1023.2 |
| 20260508064540 | 23 | 30 | 8.0 | 16.1 | 0.00 | 0.00 | 0.00 | 40 | 1023.2 |
| 20260508061549 | 23 | 113 | 4.8 | 14.5 | 0.00 | 0.00 | 0.00 | 39 | 1023.5 |
| 20260508060047 | 23 | 60 | 4.8 | 14.5 | 0.00 | 0.00 | 0.00 | 41 | 1023.8 |
| 20260508054544 | 23 | 35 | 1.6 | 14.5 | 0.00 | 0.00 | 0.00 | 43 | 1023.9 |
| 20260508053143 | 23 | 39 | 9.7 | 17.7 | 0.00 | 0.00 | 0.00 | 41 | 1024.1 |
| 20260508051525 | 22 | 81 | 4.8 | 14.5 | 0.00 | 0.00 | 0.00 | 46 | 1024.2 |
| 20260508050037 | 22 | 133 | 4.8 | 12.9 | 0.00 | 0.00 | 0.00 | 47 | 1024.6 |
| 20260508044527 | 22 | 11 | 4.8 | 19.3 | 0.00 | 0.00 | 0.00 | 48 | 1024.8 |
| 20260508043026 | 22 | 9 | 3.2 | 24.1 | 0.00 | 0.00 | 0.00 | 47 | 1025.0 |
| 20260508041522 | 22 | 209 | 3.2 | 19.3 | 0.00 | 0.00 | 0.00 | 48 | 1025.4 |
| 20260508040021 | 21 | 15 | 9.7 | 20.9 | 0.00 | 0.00 | 0.00 | 48 | 1025.7 |
| 20260508034547 | 21 | 31 | 6.4 | 24.1 | 0.00 | 0.00 | 0.00 | 49 | 1026.1 |
| 20260508033042 | 21 | 360 | 14.5 | 29.0 | 0.00 | 0.00 | 0.00 | 48 | 1026.3 |
| 20260508031507 | 21 | 30 | 8.0 | 20.9 | 0.00 | 0.00 | 0.00 | 50 | 1026.6 |
| 20260508030002 | 20 | 13 | 6.4 | 19.3 | 0.00 | 0.00 | 0.00 | 52 | 1026.8 |
| 20260508024530 | 20 | 22 | 9.7 | 20.9 | 0.00 | 0.00 | 0.00 | 53 | 1026.9 |
| 20260508023027 | 19 | 150 | 8.0 | 24.1 | 0.00 | 0.00 | 0.00 | 54 | 1027.2 |
| 20260508021515 | 19 | 17 | 9.7 | 25.7 | 0.00 | 0.00 | 0.00 | 54 | 1027.2 |
| 20260508020012 | 19 | 84 | 11.3 | 20.9 | 0.00 | 0.00 | 0.00 | 53 | 1027.4 |
| 20260508014510 | 18 | 30 | 4.8 | 19.3 | 0.00 | 0.00 | 0.00 | 54 | 1027.4 |